• în România
  • Lista ţărilor
  • Pe 7 zile
  • Temperatura apei
  • Hartă satelitară
  • Meteo pe hartă
  • Widget-uri
  • user-avatar
    Intrare

    Meteo pe oră la Ghent

    Astăzi, 17 Decembrie, Duminică

    Timp Temperatura Precipitaţii Vânt Presiune Umiditate
    00:00 0°C° 0 mm 4 m/s 764 mmHg 86%
    01:00 0°C° 0,1 mm 4 m/s 765 mmHg 87%
    02:00 0°C° 0,1 mm 4 m/s 765 mmHg 87%
    03:00 0°C° 0,1 mm 4 m/s 765 mmHg 87%
    04:00 0°C° 0 mm 4 m/s 765 mmHg 87%
    05:00 0°C° 0 mm 4 m/s 766 mmHg 87%
    06:00 +1°C° 0 mm 4 m/s 766 mmHg 87%
    07:00 +2°C° 0,1 mm 3 m/s 766 mmHg 87%
    08:00 +2°C° 0,1 mm 3 m/s 767 mmHg 86%
    09:00 +2°C° 0,1 mm 3 m/s 767 mmHg 86%
    10:00 +3°C° 0,1 mm 4 m/s 767 mmHg 83%
    11:00 +4°C° 0,1 mm 4 m/s 767 mmHg 79%
    12:00 +4°C° 0,1 mm 4 m/s 768 mmHg 76%
    13:00 +4°C° 0 mm 4 m/s 768 mmHg 76%
    14:00 +3°C° 0 mm 4 m/s 768 mmHg 77%
    15:00 +3°C° 0 mm 4 m/s 768 mmHg 77%
    16:00 +3°C° 0 mm 4 m/s 767 mmHg 78%
    17:00 +1°C° 0 mm 5 m/s 767 mmHg 80%
    18:00 +1°C° 0 mm 5 m/s 767 mmHg 81%
    19:00 +2°C° 0,1 mm 6 m/s 767 mmHg 83%
    20:00 +2°C° 0,1 mm 6 m/s 767 mmHg 85%
    21:00 +2°C° 0,1 mm 7 m/s 766 mmHg 88%
    22:00 +3°C° 0,3 mm 7 m/s 766 mmHg 89%
    23:00 +4°C° 0,3 mm 7 m/s 765 mmHg 91%

    Mâine, 18 Decembrie, Luni

    Timp Temperatura Precipitaţii Vânt Presiune Umiditate
    00:00 +4°C° 0,3 mm 7 m/s 765 mmHg 93%
    01:00 +5°C° 0,2 mm 6 m/s 765 mmHg 92%
    02:00 +5°C° 0,2 mm 6 m/s 765 mmHg 92%
    03:00 +6°C° 0,2 mm 5 m/s 765 mmHg 92%
    04:00 +6°C° 0 mm 5 m/s 765 mmHg 89%
    05:00 +6°C° 0 mm 5 m/s 766 mmHg 86%
    06:00 +5°C° 0 mm 5 m/s 766 mmHg 84%
    07:00 +5°C° 0 mm 4 m/s 767 mmHg 83%
    08:00 +5°C° 0 mm 4 m/s 768 mmHg 83%
    09:00 +5°C° 0 mm 4 m/s 768 mmHg 82%
    10:00 +5°C° 0 mm 4 m/s 769 mmHg 79%
    11:00 +6°C° 0 mm 5 m/s 769 mmHg 76%
    12:00 +7°C° 0 mm 5 m/s 769 mmHg 73%
    13:00 +7°C° 0 mm 5 m/s 770 mmHg 75%
    14:00 +6°C° 0 mm 4 m/s 770 mmHg 78%
    15:00 +6°C° 0 mm 4 m/s 770 mmHg 81%
    16:00 +5°C° 0 mm 3 m/s 771 mmHg 83%
    17:00 +5°C° 0 mm 3 m/s 771 mmHg 86%
    18:00 +4°C° 0 mm 3 m/s 772 mmHg 88%
    19:00 +5°C° 0 mm 2 m/s 772 mmHg 89%
    20:00 +5°C° 0 mm 2 m/s 773 mmHg 89%
    21:00 +5°C° 0 mm 1 m/s 773 mmHg 89%
    22:00 +5°C° 0 mm 1 m/s 774 mmHg 89%
    23:00 +5°C° 0 mm 1 m/s 774 mmHg 90%

    Poimâine, 19 Decembrie, Marţi

    Timp Temperatura Precipitaţii Vânt Presiune Umiditate
    00:00 +5°C° 0 mm 1 m/s 774 mmHg 90%
    01:00 +4°C° 0 mm 2 m/s 774 mmHg 91%
    02:00 +4°C° 0 mm 2 m/s 775 mmHg 91%
    03:00 +3°C° 0 mm 2 m/s 775 mmHg 92%
    04:00 +3°C° 0 mm 2 m/s 775 mmHg 92%
    05:00 +3°C° 0 mm 2 m/s 775 mmHg 93%
    06:00 +3°C° 0 mm 2 m/s 775 mmHg 93%
    07:00 +3°C° 0 mm 2 m/s 776 mmHg 93%
    08:00 +3°C° 0 mm 2 m/s 776 mmHg 93%
    09:00 +2°C° 0 mm 3 m/s 776 mmHg 94%
    10:00 +3°C° 0 mm 3 m/s 776 mmHg 89%
    11:00 +4°C° 0 mm 3 m/s 776 mmHg 85%
    12:00 +5°C° 0 mm 4 m/s 776 mmHg 81%
    13:00 +5°C° 0 mm 3 m/s 776 mmHg 82%
    14:00 +5°C° 0 mm 3 m/s 776 mmHg 84%
    15:00 +5°C° 0 mm 3 m/s 776 mmHg 86%
    16:00 +4°C° 0 mm 3 m/s 776 mmHg 87%
    17:00 +4°C° 0 mm 4 m/s 776 mmHg 89%
    18:00 +3°C° 0 mm 4 m/s 776 mmHg 91%
    19:00 +3°C° 0 mm 4 m/s 776 mmHg 91%
    20:00 +3°C° 0 mm 4 m/s 776 mmHg 90%
    21:00 +3°C° 0 mm 4 m/s 776 mmHg 90%
    22:00 +4°C° 0 mm 4 m/s 776 mmHg 88%
    23:00 +4°C° 0 mm 4 m/s 776 mmHg 87%

    20 Decembrie, Miercuri

    Timp Temperatura Precipitaţii Vânt Presiune Umiditate
    00:00 +3°C° 0 mm 5 m/s 776 mmHg 85%
    01:00 +5°C° 0,1 mm 4 m/s 776 mmHg 87%
    02:00 +5°C° 0,1 mm 4 m/s 775 mmHg 89%
    03:00 +5°C° 0,1 mm 4 m/s 775 mmHg 91%
    04:00 +5°C° 0 mm 4 m/s 775 mmHg 93%
    05:00 +7°C° 0 mm 3 m/s 775 mmHg 94%
    06:00 +7°C° 0 mm 3 m/s 775 mmHg 96%
    07:00 +7°C° 0 mm 3 m/s 775 mmHg 96%
    08:00 +8°C° 0 mm 3 m/s 775 mmHg 96%
    09:00 +8°C° 0 mm 3 m/s 776 mmHg 97%
    10:00 +8°C° 0 mm 3 m/s 776 mmHg 96%
    11:00 +9°C° 0 mm 3 m/s 776 mmHg 96%
    12:00 +9°C° 0 mm 3 m/s 775 mmHg 95%
    13:00 +10°C° 0 mm 3 m/s 775 mmHg 95%
    14:00 +10°C° 0 mm 3 m/s 775 mmHg 95%
    15:00 +10°C° 0 mm 3 m/s 775 mmHg 95%
    16:00 +9°C° 0 mm 3 m/s 775 mmHg 95%
    17:00 +9°C° 0 mm 3 m/s 775 mmHg 95%
    18:00 +9°C° 0 mm 3 m/s 776 mmHg 95%
    19:00 +8°C° 0 mm 4 m/s 776 mmHg 95%
    20:00 +8°C° 0 mm 4 m/s 776 mmHg 96%
    21:00 +7°C° 0 mm 4 m/s 776 mmHg 96%
    22:00 +7°C° 0 mm 4 m/s 775 mmHg 96%
    23:00 +7°C° 0 mm 4 m/s 775 mmHg 96%

    21 Decembrie, Joi

    Timp Temperatura Precipitaţii Vânt Presiune Umiditate
    00:00 +7°C° 0 mm 4 m/s 775 mmHg 96%
    01:00 +7°C° 0 mm 4 m/s 775 mmHg 96%
    02:00 +8°C° 0 mm 4 m/s 775 mmHg 96%
    03:00 +8°C° 0 mm 5 m/s 775 mmHg 96%
    04:00 +8°C° 0 mm 5 m/s 775 mmHg 95%
    05:00 +8°C° 0 mm 5 m/s 774 mmHg 95%
    06:00 +9°C° 0 mm 5 m/s 774 mmHg 95%
    07:00 +9°C° 0 mm 5 m/s 774 mmHg 94%
    08:00 +9°C° 0 mm 6 m/s 774 mmHg 93%
    09:00 +9°C° 0 mm 6 m/s 774 mmHg 92%
    10:00 +9°C° 0 mm 6 m/s 774 mmHg 90%
    11:00 +10°C° 0 mm 7 m/s 774 mmHg 88%
    12:00 +10°C° 0 mm 7 m/s 773 mmHg 86%
    13:00 +10°C° 0,1 mm 6 m/s 773 mmHg 86%
    14:00 +10°C° 0,1 mm 6 m/s 773 mmHg 87%
    15:00 +10°C° 0,1 mm 6 m/s 772 mmHg 88%
    16:00 +10°C° 0,1 mm 6 m/s 772 mmHg 88%
    17:00 +10°C° 0,1 mm 6 m/s 772 mmHg 88%
    18:00 +10°C° 0,1 mm 7 m/s 771 mmHg 88%
    19:00 +10°C° 0,3 mm 7 m/s 771 mmHg 87%
    20:00 +10°C° 0,3 mm 8 m/s 771 mmHg 87%
    21:00 +10°C° 0,3 mm 9 m/s 770 mmHg 86%
    22:00 +10°C° 0,6 mm 9 m/s 771 mmHg 85%
    23:00 +8°C° 0,6 mm 9 m/s 771 mmHg 84%

    22 Decembrie, Vineri

    Timp Temperatura Precipitaţii Vânt Presiune Umiditate
    00:00 +8°C° 0,6 mm 9 m/s 771 mmHg 84%
    01:00 +7°C° 0 mm 8 m/s 772 mmHg 81%
    02:00 +7°C° 0 mm 8 m/s 773 mmHg 79%
    03:00 +6°C° 0 mm 7 m/s 774 mmHg 76%
    04:00 +7°C° 0 mm 6 m/s 775 mmHg 76%
    05:00 +5°C° 0 mm 6 m/s 776 mmHg 76%
    06:00 +6°C° 0 mm 5 m/s 776 mmHg 76%
    07:00 +6°C° 0 mm 5 m/s 777 mmHg 77%
    08:00 +6°C° 0 mm 5 m/s 778 mmHg 78%
    09:00 +5°C° 0 mm 4 m/s 779 mmHg 78%
    10:00 +6°C° 0 mm 4 m/s 779 mmHg 75%
    11:00 +7°C° 0 mm 5 m/s 779 mmHg 71%
    12:00 +7°C° 0 mm 5 m/s 779 mmHg 68%
    13:00 +7°C° 0 mm 4 m/s 779 mmHg 71%
    14:00 +6°C° 0 mm 4 m/s 779 mmHg 74%
    15:00 +7°C° 0 mm 3 m/s 779 mmHg 77%
    16:00 +5°C° 0 mm 4 m/s 779 mmHg 80%
    17:00 +5°C° 0 mm 4 m/s 779 mmHg 83%
    18:00 +4°C° 0 mm 4 m/s 780 mmHg 85%
    19:00 +4°C° 0 mm 4 m/s 780 mmHg 85%
    20:00 +4°C° 0 mm 4 m/s 779 mmHg 85%
    21:00 +3°C° 0 mm 4 m/s 779 mmHg 86%
    22:00 +3°C° 0 mm 4 m/s 779 mmHg 86%
    23:00 +2°C° 0 mm 5 m/s 779 mmHg 86%
    Arată mai mult